Back to catalog

STARLINK-30049

AliveCommunicationsVLEO
NORAD 56294·PAYLOAD·🇺🇸 United States

Launched Apr 19, 2023 from Cape Canaveral Space Force Station

Loading…

Next Passes (next 24 hours)

TLE

FreshSource: CelesTrak SupGP

Epoch: Sep 14, 2026, 20:48 UTC

1 56294C 23056J   26257.86715278  .00033047  00000+0  11971-2 0  2572
2 56294  43.0020 220.7367 0001417 264.5414 293.5560 15.27559782    15

Track STARLINK-30049 in real time with AllMySat

Download on the App Store